CDT,Max TemperatureF,Mean TemperatureF,Min TemperatureF,Max Dew PointF,MeanDew PointF,Min DewpointF,Max Humidity, Mean Humidity, Min Humidity, Max Sea Level PressureIn, Mean Sea Level PressureIn, Min Sea Level PressureIn, Max VisibilityMiles, Mean VisibilityMiles, Min VisibilityMiles, Max Wind SpeedMPH, Mean Wind SpeedMPH, Max Gust SpeedMPH,PrecipitationIn, CloudCover, Events, WindDirDegrees
2013-3-1,27,22,17,23,19,15,92,84,75,30.43,30.32,30.17,10,8,4,16,9,22,0.00,7,,136
2013-3-2,33,26,18,27,21,16,100,88,75,30.19,30.08,29.95,10,7,2,16,6,21,T,3,Snow,252
2013-3-3,27,23,18,24,20,16,100,92,84,30.00,29.79,29.65,7,3,0,20,11,25,0.01,8,Fog-Snow,82
2013-3-4,25,21,16,23,19,12,100,92,84,30.29,29.85,29.61,4,1,0,29,22,35,0.09,8,Fog-Snow,9
2013-3-5,17,10,2,12,6,-1,95,85,74,30.51,30.41,30.20,10,5,2,23,12,28,T,5,Snow,300
2013-3-6,14,5,-4,9,-1,-8,95,86,76,30.48,30.35,30.21,10,6,0,17,8,22,T,4,Fog-Snow,122
2013-3-7,27,15,3,22,14,1,91,86,81,30.19,30.13,30.03,10,7,4,20,10,22,0.00,5,,155
2013-3-8,25,18,11,20,14,8,92,80,68,30.26,30.18,30.05,10,8,1,16,7,20,0.01,5,Snow,320
2013-3-9,28,19,9,25,17,5,92,85,77,30.27,29.99,29.90,10,4,0,30,13,36,0.07,5,Fog-Snow,269
2013-3-10,23,13,2,12,6,0,88,75,62,30.40,30.28,30.08,10,10,7,22,7,25,T,0,,239
2013-3-11,32,22,11,25,18,7,92,81,69,30.08,29.90,29.78,10,7,1,33,18,41,0.03,6,Snow,252
2013-3-12,23,12,1,20,12,-1,95,81,67,30.39,30.20,29.95,10,4,0,32,14,39,0.05,6,Fog-Snow,296
2013-3-13,37,17,-3,29,13,-6,91,76,61,30.38,30.16,29.97,10,10,10,17,7,22,0.00,3,,143
2013-3-14,38,29,19,30,23,17,100,88,76,30.20,30.10,30.01,10,7,2,17,8,21,T,4,Snow,321
2013-3-15,21,7,-7,18,6,-10,91,86,80,30.31,30.10,29.99,10,3,0,22,12,26,0.13,7,Fog-Snow,46
2013-3-16,8,-2,-12,0,-6,-15,90,77,63,30.37,30.30,30.16,10,8,2,15,8,18,T,4,Snow,277
2013-3-17,18,12,5,14,8,-1,92,84,76,30.23,29.74,29.53,10,4,0,23,16,31,0.12,8,Fog-Snow,103
2013-3-18,12,5,-3,9,1,-5,88,75,61,30.12,29.86,29.58,10,4,1,33,19,40,0.07,4,Snow,291
2013-3-19,12,4,-4,5,1,-5,87,79,70,30.50,30.30,30.00,10,6,1,25,13,29,T,3,Snow,282
2013-3-20,15,3,-10,6,-2,-9,91,75,59,30.49,30.37,30.21,10,10,8,14,8,16,0.00,0,,139
2013-3-21,13,3,-8,6,-2,-11,88,79,70,30.19,30.13,30.00,10,10,2,16,9,20,0.00,1,,98
2013-3-22,16,10,3,12,8,-1,92,83,73,30.21,30.09,29.99,10,5,1,13,8,15,0.01,8,Snow,81
2013-3-23,20,17,13,16,12,10,92,83,73,30.30,30.20,30.10,7,3,1,14,6,16,0.01,8,Snow,317
2013-3-24,21,14,7,16,13,4,92,83,73,30.43,30.28,30.18,10,6,2,18,12,21,T,7,Snow,321
2013-3-25,19,10,1,12,4,-3,95,81,67,30.49,30.42,30.34,10,7,2,15,6,17,T,2,,282
2013-3-26,26,7,-12,18,3,-16,95,82,68,30.40,30.33,30.27,10,8,3,16,5,18,0.00,0,,106
2013-3-27,23,9,-5,18,7,-6,100,89,77,30.30,30.26,30.16,10,6,0,12,4,14,0.00,0,Fog,85
2013-3-28,23,13,3,20,9,1,100,90,80,30.32,30.24,30.15,4,1,0,7,2,8,0.00,8,Fog-Snow,340
2013-3-29,29,20,11,27,18,9,100,91,81,30.28,30.12,29.97,7,2,0,10,4,12,T,4,Fog,95
2013-3-30,40,31,21,32,26,20,100,85,69,30.09,30.04,29.97,10,6,2,32,15,39,0.01,1,,266
2013-3-31,28,20,12,21,15,8,81,70,59,30.34,30.17,30.01,10,8,2,24,12,30,T,4,Snow,319